Location: Newark
(31.5350°N, 35.0986°E)
Time: 16:03:06
(UTC+00:00)

Vanguard 1 - All Passes

Search period start: 22 September 2019 00:00
Search period end: 02 October 2019 00:00
Orbit: 654 x 3830 km, 34.3° (Epoch: 21 September)

Date Brightness Start Highest point End Pass type
(mag) Time Alt. Az. Time Alt. Az. Time Alt. Az.
22 Sep - 00:50:17 10° W 01:14:18 84° N 01:30:30 10° E visible
22 Sep - 03:19:53 10° WNW 03:40:44 88° NNE 03:52:03 10° ESE daylight
22 Sep - 05:49:05 10° WNW 06:03:13 47° SW 06:11:03 10° SSE daylight
22 Sep - 18:17:07 10° SE 18:19:16 10° SE 18:21:30 10° ESE night (unlit)
22 Sep - 20:23:58 10° SSW 20:42:11 43° SE 21:02:47 10° ENE visible
22 Sep - 22:45:17 10° WSW 23:08:20 79° SSE 23:28:42 10° ENE visible
23 Sep - 01:12:21 10° W 01:36:14 82° N 01:51:49 10° E visible
23 Sep - 03:41:59 10° WNW 04:02:12 85° SSW 04:13:05 10° ESE daylight
23 Sep - 06:11:18 10° WNW 06:23:46 35° SW 06:31:10 10° SSE daylight
23 Sep - 18:29:40 10° SSE 18:39:57 17° SE 18:51:54 10° E visible
23 Sep - 20:44:03 10° SSW 21:03:15 52° SE 21:24:53 10° ENE visible
23 Sep - 23:06:41 10° WSW 23:30:07 86° SSE 23:50:09 10° ENE visible
24 Sep - 01:34:29 10° W 01:58:10 82° N 02:13:08 10° E visible
24 Sep - 04:04:01 10° WNW 04:23:30 74° SSW 04:33:57 10° ESE daylight
24 Sep - 06:33:55 10° W 06:44:10 25° SW 06:50:50 10° S daylight
24 Sep - 18:47:25 10° S 19:00:33 25° SE 19:16:42 10° E visible
24 Sep - 21:04:31 10° SW 21:24:28 62° SE 21:46:43 10° ENE visible
24 Sep - 23:28:19 10° WSW 23:52:02 88° NNW 00:11:36 10° ENE visible
25 Sep - 01:56:37 10° W 02:20:02 84° N 02:34:25 10° E visible
25 Sep - 04:26:03 10° WNW 04:44:35 63° SSW 04:54:39 10° SE daylight
25 Sep - 06:57:23 10° W 07:04:24 17° SW 07:09:39 10° SSW daylight
25 Sep - 19:06:23 10° S 19:21:12 33° SE 19:40:05 10° E visible
25 Sep - 21:25:17 10° SW 21:45:53 71° SSE 22:08:25 10° ENE visible
25 Sep - 23:50:06 10° W 00:14:02 84° N 00:33:04 10° E visible
26 Sep - 02:18:44 10° WNW 02:41:48 89° NNE 02:55:37 10° ESE visible
26 Sep - 04:48:10 10° WNW 05:05:25 51° SW 05:15:06 10° SE daylight
26 Sep - 19:26:00 10° SSW 19:41:56 42° SE 20:02:44 10° ENE visible
26 Sep - 21:46:20 10° WSW 22:07:29 80° SSE 22:30:03 10° ENE visible
27 Sep - 00:12:02 10° W 00:36:06 82° N 00:54:31 10° E visible
27 Sep - 02:40:47 10° WNW 03:03:24 84° SSW 03:16:42 10° ESE visible
27 Sep - 05:10:27 10° WNW 05:26:02 39° SW 05:35:15 10° SSE daylight
27 Sep - 17:32:38 10° SSE 17:40:45 15° SE 17:50:31 10° E visible
27 Sep - 19:46:04 10° SSW 20:02:50 52° SE 20:24:57 10° ENE visible
27 Sep - 22:07:37 10° WSW 22:29:17 87° SSE 22:51:39 10° ENE visible
28 Sep - 00:34:01 10° W 00:58:11 83° N 01:15:58 10° E visible
28 Sep - 03:02:48 10° WNW 03:24:49 75° SSW 03:37:37 10° SE visible
28 Sep - 05:33:06 10° W 05:46:27 29° SW 05:54:58 10° S daylight
28 Sep - 17:50:11 10° S 18:01:10 23° SE 18:15:39 10° E visible
28 Sep - 20:06:29 10° SW 20:23:55 62° SE 20:46:56 10° ENE visible
28 Sep - 22:29:06 10° WSW 22:51:14 88° NNW 23:13:16 10° E visible
29 Sep - 00:56:00 10° W 01:20:12 85° N 01:37:22 10° E visible
29 Sep - 03:24:49 10° WNW 03:45:59 64° SSW 03:58:21 10° SE daylight
29 Sep - 05:56:28 10° W 06:06:44 20° SW 06:14:00 10° S daylight
29 Sep - 18:09:06 10° S 18:21:37 31° SE 18:39:11 10° ENE visible
29 Sep - 20:27:12 10° SW 20:45:14 72° SSE 21:08:47 10° ENE visible
29 Sep - 22:50:45 10° W 23:13:18 84° N 23:34:54 10° E visible
30 Sep - 01:17:58 10° WNW 01:42:05 90° N 01:58:40 10° ESE visible
30 Sep - 03:46:55 10° WNW 04:06:55 53° SW 04:18:48 10° SE daylight
30 Sep - 06:21:39 10° W 06:26:57 13° WSW 06:31:22 10° SW daylight
30 Sep - 18:28:42 10° SSW 18:42:11 41° SE 19:01:57 10° ENE visible
30 Sep - 20:48:11 10° WSW 21:06:45 80° SSE 21:30:33 10° ENE visible
30 Sep - 23:12:30 10° W 23:35:28 83° N 23:56:32 10° E visible
01 Oct - 01:39:55 10° WNW 02:03:49 84° SSW 02:19:49 10° ESE visible
01 Oct - 04:09:13 10° WNW 04:27:37 42° SW 04:38:59 10° SSE daylight
01 Oct - 16:36:36 10° SE 16:42:03 13° ESE 16:48:32 10° E visible
01 Oct - 18:48:45 10° SSW 19:02:56 51° SE 19:24:17 10° ENE visible
01 Oct - 21:09:21 10° WSW 21:28:30 87° SSE 21:52:20 10° ENE visible
